Regional Weather Roundup
Issued by NWS

Home | Current Version | Previous Version | Graphics & Text | Print | Product List | Glossary On
Versions: 1 2 3 4 5 6 7 8 9 10 11 12 13 14 15 16 17 18 19 20 21 22 23 24 25 26 27 28 29 30 31 32 33 34 35 36 37 38 39 40 41 42 43 44 45 46 47 48 49 50
000
ASUS43 KTOP 251108
RWRKS

WEATHER ROUNDUP FOR KANSAS
NATIONAL WEATHER SERVICE GOODLAND KS
600 AM CDT THU AUG 25 2016

NOTE:  "FAIR" INDICATES FEW OR NO CLOUDS BELOW 12,000 FEET WITH NO
SIGNIFICANT WEATHER AND/OR OBSTRUCTIONS TO VISIBILITY.

KSZ001>006-013>018-027>032-041>047-251200-
NORTHWEST KANSAS

CITY           SKY/WX    TMP DP  RH WIND       PRES   REMARKS
GOODLAND       PTCLDY    50  47  89 N5        30.18S
HAYS           CLOUDY    63  54  72 NE6       30.09S
HILL CITY      LGT RAIN  59  57  93 N6        30.12F
RUSSELL        CLOUDY    61  60  97 N16       30.07F
$$

KSZ061>065-074>080-084>089-251200-
SOUTHWEST KANSAS

CITY           SKY/WX    TMP DP  RH WIND       PRES   REMARKS
DODGE CITY     CLOUDY    61  60  97 N12       30.10R
ELKHART          N/A     60  55  83 N6          N/A
GARDEN CITY    MOCLDY    58  56  93 NE9       30.13R
GREAT BEND     CLOUDY    63  54  72 N13       30.08R
LIBERAL        CLOUDY    63  57  82 N6        30.15R
PRATT          CLOUDY    61  60  97 NW8       30.06R
$$

KSZ066>073-081>083-090>101-251200-
SOUTHEAST KANSAS

CITY           SKY/WX    TMP DP  RH WIND       PRES   REMARKS
CHANUTE        CLEAR     67  65  93 SE7       30.03R
COFFEYVILLE    CLEAR     69  65  86 CALM      30.03S
HUTCHINSON     PTCLDY    66  64  93 MISG      30.02S
MEDICINE LODGE   N/A     67  64  90 E3        30.05
NEWTON         TSTM      66  66 100 NW14      30.05F
PARSONS        CLEAR     67  66  97 CALM      30.04S
WICHITA INTL   CLOUDY    69  66  90 N10       30.04R
WICHITA JABRA  CLOUDY    70  67  90 W12       30.06R
WICHITA MCCONL CLOUDY    71  66  84 NW9       30.05R
WINFIELD       MOCLDY    70  68  93 CALM      30.04R
$$

KSZ007>012-019>026-033>040-048>060-102>105-251200-
NORTHEAST KANSAS

CITY           SKY/WX    TMP DP  RH WIND       PRES   REMARKS
CONCORDIA      TSTM      60  56  86 N13       30.09R FOG
EMPORIA        TSTM      69  68  96 VRB5G20   30.04R FOG
LAWRENCE       CLOUDY    70  32  24 MISG      30.01F
MANHATTAN      TSTM      68  66  93 CALM      30.01F FOG
MARYSVILLE     RAIN      63  61  94 N7        30.06S
OLATHE IND     CLOUDY    70  70 100 SE5       30.03S FOG
OLATHE EXE     FOG       69  69 100 CALM      30.03S VSB 1/2
SALINA         LGT RAIN  65  63  93 NE10      30.04R
TOPEKA BILLARD TSTM      70  69  97 CALM      30.02S VSB 1/2
TOPEKA FORBES  TSTM      72  70  93 MISG      30.01R FOG
$$



USA.gov is the U.S. government's official web portal to all federal, state and local government web resources and services.